THORAD DELTA 1 DEB, 8159

Orbit data source: Space-Track

THORAD DELTA 1 DEB, 8159 is space debris in SSO originally from a launch on Fri, 15 Nov 1974 UTC launched from the Air Force Western Test Range (AFWTR). Debris objects in space refer to the collection of defunct objects orbiting the Earth. Examples of debris include non-operational satellites, rocket bodies, and fragments generated from explosions, collisions, or faulty payload assembly.

Loading next visibility...
Identifier
8159, 1974-089Z
Orbit
SSO
Country
Flag of USUS
Related business
Manufacturer
Unknown
Mission
Spacecraft
Bus & Motor
Unknown
Mass
Unknown
Launch date (UTC)
1974-11-15 (52 years ago)
Launch vehicle
Unknown
Launch site
Air Force Western Test Range (AFWTR)
Object type
Payload
Rocket body
Debris
Shape & HBR
Unknown shape, 1.1 m
Radar Cross Section
Medium (>0.1 m² and <1 m²)

Expand to show TLE details & history
Last TLE update: 8 hours ago

TLE from 8 hours ago
0 THORAD DELTA 1 DEB
1 08159U 74089Z   26207.62828781  .00000976  00000-0  51987-2 0  9994
2 08159 101.3806 229.1399 0046818 137.2068 223.2674 12.68820626363800
Epoch: 2026-07-26T15:04Z
TLE epoch observation values (Epoch: 2026-07-26T15:04:44.066Z)
Latitude
Longitude
58.6328°
Altitude
1,415.916 km
Speed
7.141 km/s
True Right ascension
15h 16m 33s
True Declination
0° 00' 00"
Sunlit
Object was in daylight at epoch
Visualization orbit readout
Latitude
Unknown
Longitude
Unknown
Altitude
Unknown
Speed
Unknown
Apparent Right ascension
Unknown
Apparent Declination
Unknown
Sunlit
N/A
Visualization observer readout
Local Sidereal Time
12:17:56
Azimuth
Unknown
Elevation
Unknown
Doppler factor
Unknown
Orbital elements
Apogee altitude
1,420.59 km
Perigee altitude
1,347.907 km
Semi-major axis
7,762.385 km
Eccentricity
0.00468
Inclination
101.3806°
RAAN
229.1399°
Arg. of periapsis
137.2068°
True anomaly
222.90125°
Mean anomaly
223.2674°
Eccentric anomaly
223.08417°
Mean motion
3.17359 °/min
Orbital period
113.44 mins
BSTAR
0.0051987
Loading maneuver chart data...
Computing Atmospheric mass density...

Documentation

Showing up to 5 results
|